Regional Weather Roundup
Issued by NWS Sioux Falls, SD

Home | Current Version | Previous Version | Text Only | Print | Product List | Glossary Off
Versions: 1 2 3 4 5 6 7 8 9 10 11 12 13 14 15 16 17 18 19 20 21 22 23 24 25 26 27 28 29 30 31 32 33 34 35 36 37 38 39 40 41 42 43 44 45 46 47 48 49 50

000
ASUS43 KFSD 220510
RWRFSD

WEATHER ROUNDUP FOR SE SOUTH DAKOTA/SW MINNESOTA/NW IOWA
NATIONAL WEATHER SERVICE SIOUX FALLS SD
1200 AM CDT WED OCT 22 2014

NOTE: "FAIR" INDICATES FEW OR NO CLOUDS BELOW 12,000 FEET WITH NO
SIGNIFICANT WEATHER AND OR OBSTRUCTIONS TO VISIBILITY.


SDZ038>040-050-052>070-220600-
SOUTHEAST SOUTH DAKOTA

CITY           SKY/WX    TMP DP  RH WIND       PRES   REMARKS
CHAMBERLAIN    CLEAR     62  44  51 SE13G18   29.85S
HURON          CLEAR     62  41  46 S17G33    29.89S
MADISON        FAIR      54  41  62 S14       29.99F
MITCHELL       CLEAR     62  42  47 SE22G30   29.92F
SIOUX FALLS    CLEAR     56  43  61 SE15      30.02S
WINNER         FAIR      66  52  60 S21G29    29.83S
YANKTON        CLEAR     59  39  47 SE16G22   29.99F
$$

MNZ071-072-080-081-089-090-097-098-220600-
SOUTHWEST MINNESOTA

CITY           SKY/WX    TMP DP  RH WIND       PRES   REMARKS
FAIRMONT       CLEAR     48  36  61 SE15      30.13S
JACKSON        CLEAR     50  37  62 SE17      30.11F
LUVERNE        CLEAR     54  43  66 S8        30.06S
MARSHALL       CLEAR     54  39  58 S18       30.03F
MONTEVIDEO     CLEAR     52  41  66 MISG      30.04F
PIPESTONE      CLEAR     52  43  71 S15G21    30.03F
REDWOOD FALLS  CLEAR     50  40  68 SE15      30.08S
TRACY          CLEAR     53  42  66 S15G23    30.05S
WINDOM         CLEAR     50  41  71 SE15      30.10S
WORTHINGTON    CLEAR     52  39  62 S16       30.09S
$$

IAZ001>003-012>014-020>022-031-032-NEZ013-014-SDZ071-220600-
NORTHWEST IOWA

CITY           SKY/WX    TMP DP  RH WIND       PRES   REMARKS
CHEROKEE       CLEAR     51  43  75 SE14      30.09F
DENISON        MOCLDY    50  45  81 SE12      30.09S
ESTHERVILLE    CLEAR     47  40  76 SE17      30.12S
LE MARS        CLEAR     54  45  71 SE13G20   30.06S
ORANGE CITY    CLEAR     55  45  67 SE8G16    30.07S
SHELDON        CLEAR     52  43  71 SE15      30.07S
SIOUX CITY     CLEAR     51  43  74 SE8       30.06S
SPENCER        CLEAR     49  41  74 SE13      30.11S
STORM LAKE     CLEAR     48  43  81 SE16      30.11F
$$

ABBREVIATIONS USED IN REMARKS
   TC - TEMPERATURE IN CELSIUS
  WCI - WIND CHILL INDEX
   HX - HEAT INDEX
  VSB - VISIBILITY




USA.gov is the U.S. government's official web portal to all federal, state and local government web resources and services.